Biloxi, MS

3:29 AM CDT on April 23, 2018 (GMT -0500)
Keesler Air Force Base

Weather History for KBIX - June, 2014

Change the Weather History Date:

Wednesday, June 11, 2014

  Actual Average Record
Temperature  
Mean Temperature 80 °F -  
Max Temperature 85 °F 88 °F 98 °F (1954)
Min Temperature 74 °F 71 °F 59 °F (1988)
Cooling Degree Days 14    
Growing Degree Days 30 (Base 50)    
Moisture  
Dew Point 70 °F    
Average Humidity 75    
Maximum Humidity 89    
Minimum Humidity 53    
Precipitation  
Precipitation 0.01 in - - ()
Sea Level Pressure  
Sea Level Pressure 29.86 in    
Wind  
Wind Speed 15 mph (SW)    
Max Wind Speed 22 mph    
Max Gust Speed 31 mph    
Visibility 10 miles    
Events Rain    
Averages and records for this station are not official NWS values.
T = Trace of Precipitation, MM = Missing Value Source: NWS Daily Summary

Daily Weather History Graph

Daily Weather History Graph

Search for Another Location

Airport or City:

Astronomy

Jun. 11, 2014 Rise Set
Actual Time 5:52 AM CDT 7:57 PM CDT
Civil Twilight 5:25 AM CDT 8:25 PM CDT
Nautical Twilight 4:52 AM CDT 8:58 PM CDT
Astronomical Twilight 4:16 AM CDT 9:34 PM CDT
Moon 6:33 PM CDT (6/11) 4:34 AM CDT (6/11)
Length of Visible Light 14h 59m
Length of Day
14h 04m
Waxing Gibbous, 97% of the Moon is Illuminated
Jun 11
Waxing Gibbous
Jun 12
Full
Jun 19
Last Quarter
Jun 27
New
Jul 5
First Quarter

Hourly Weather History & Observations

Time (CDT) Temp. Heat Index Dew Point Humidity Pressure Visibility Wind Dir Wind Speed Gust Speed Precip Events Conditions
12:08 AM 77.0 °F - 71.6 °F 83% 29.86 in 10.0 mi SSW 15.0 mph - N/A   Mostly Cloudy
12:58 AM 76.8 °F - 72.0 °F 85% 29.86 in 10.0 mi SW 20.7 mph - N/A   Scattered Clouds
1:38 AM 77.0 °F - 71.6 °F 83% 29.86 in 10.0 mi SW 20.7 mph 31.1 mph N/A   Mostly Cloudy
1:58 AM 76.6 °F - 70.0 °F 80% 29.85 in 10.0 mi SSW 20.7 mph 27.6 mph N/A   Mostly Cloudy
2:18 AM 75.2 °F - 69.8 °F 83% 29.84 in 10.0 mi SSW 16.1 mph 21.9 mph N/A   Mostly Cloudy
2:38 AM 77.0 °F - 69.8 °F 78% 29.84 in 10.0 mi SW 21.9 mph 29.9 mph N/A   Mostly Cloudy
2:43 AM 77.0 °F - 71.6 °F 83% 29.83 in 10.0 mi SW 20.7 mph 29.9 mph N/A   Mostly Cloudy
2:48 AM 77.0 °F - 71.6 °F 83% 29.83 in 10.0 mi SW 21.9 mph 28.8 mph N/A   Mostly Cloudy
2:58 AM 76.3 °F - 70.9 °F 83% 29.83 in 10.0 mi SSW 21.9 mph 28.8 mph N/A   Mostly Cloudy
3:03 AM 75.2 °F - 69.8 °F 83% 29.82 in 10.0 mi SW 18.4 mph 27.6 mph N/A   Mostly Cloudy
3:28 AM 75.2 °F - 69.8 °F 83% 29.83 in 10.0 mi SW 17.3 mph 25.3 mph N/A Rain Light Rain
3:58 AM 74.8 °F - 71.4 °F 89% 29.85 in 10.0 mi SW 12.7 mph - 0.01 in Rain Light Rain
3:59 AM 75.2 °F - 71.6 °F 89% 29.83 in 10.0 mi SW 15.0 mph - N/A   Mostly Cloudy
4:04 AM 75.2 °F - 71.6 °F 89% 29.84 in 10.0 mi SW 18.4 mph 25.3 mph N/A   Mostly Cloudy
4:24 AM 75.2 °F - 71.6 °F 89% 29.84 in 10.0 mi SSW 16.1 mph - N/A   Overcast
4:58 AM 75.4 °F - 71.1 °F 86% 29.84 in 10.0 mi SSW 18.4 mph - 0.00 in   Partly Cloudy
5:58 AM 76.1 °F - 71.6 °F 86% 29.86 in 10.0 mi WSW 12.7 mph - N/A   Partly Cloudy
6:58 AM 76.6 °F - 71.6 °F 84% 29.87 in 10.0 mi WSW 11.5 mph - N/A   Clear
7:58 AM 77.2 °F - 72.7 °F 86% 29.89 in 10.0 mi Variable 4.6 mph - N/A   Mostly Cloudy
8:58 AM 80.4 °F 83.1 °F 68.2 °F 66% 29.91 in 10.0 mi Variable 1.2 mph - N/A   Clear
9:58 AM 79.7 °F - 68.2 °F 68% 29.92 in 10.0 mi Variable 2.3 mph - N/A   Mostly Cloudy
10:58 AM 81.9 °F 84.8 °F 68.0 °F 63% 29.93 in 10.0 mi West 3.5 mph - N/A   Partly Cloudy
11:58 AM 82.4 °F 85.4 °F 68.2 °F 62% 29.92 in 10.0 mi SW 8.1 mph - N/A   Clear
12:58 PM 83.5 °F 86.7 °F 68.4 °F 60% 29.89 in 10.0 mi SW 10.4 mph - N/A   Clear
1:58 PM 83.5 °F 87.2 °F 69.4 °F 62% 29.87 in 10.0 mi SW 15.0 mph - N/A   Clear
2:58 PM 84.6 °F 87.9 °F 68.2 °F 58% 29.86 in 10.0 mi SW 16.1 mph - N/A   Clear
3:58 PM 85.1 °F 87.7 °F 66.6 °F 54% 29.86 in 10.0 mi SW 15.0 mph - N/A   Clear
4:58 PM 85.1 °F 87.4 °F 66.0 °F 53% 29.85 in 10.0 mi WSW 13.8 mph - N/A   Clear
5:58 PM 84.9 °F 87.4 °F 66.6 °F 54% 29.83 in 10.0 mi WSW 10.4 mph - N/A   Partly Cloudy
6:58 PM 82.9 °F 85.6 °F 67.1 °F 59% 29.84 in 10.0 mi WSW 10.4 mph - N/A   Clear
7:58 PM 81.5 °F 83.9 °F 67.1 °F 61% 29.85 in 10.0 mi WSW 8.1 mph - N/A   Clear
8:58 PM 79.5 °F - 67.3 °F 66% 29.87 in 10.0 mi WSW 4.6 mph - N/A   Clear
9:58 PM 78.1 °F - 66.6 °F 68% 29.88 in 10.0 mi West 2.3 mph - N/A   Clear
10:58 PM 79.2 °F - 70.2 °F 74% 29.89 in 10.0 mi SSW 9.2 mph - N/A   Clear
11:58 PM 77.4 °F - 72.1 °F 84% 29.89 in 10.0 mi SW 6.9 mph - N/A   Clear